[[{"header":{"parameterUnit":"m.s-1","parameterCategory":1,"la1":30.2991,"la2":30.254,"lo1":-89.0895,"lo2":-89.0444,"dy":0.0017,"dx":0.0017,"nx":28,"ny":28,"refTime":"2024-02-01T03:00:00:Z","depth":0,"parameterNumber":2,"parameterNumberName":"U-component_of_WINDS"},"data":[0,0,0,0,0,0,0,0,0,0,0,0,0,0,0,0,0,0,0,0,0,0,0,0,0,0,0,0,0,0,0,0,0,0,0,0,0,0,0,0,0,0,0,0,0,0,0,0,0,0,0,0,0,0,0,0,0,0,-0.6259,-0.6259,0,-0.6267,-0.6267,-0.6267,-0.626,-0.626,-0.6259,-0.6259,-0.6269,-0.627,-0.627,0,0,0,0,0,0,0,0,0,0,0,0,0,-0.6241,-0.6241,-0.6259,-0.6259,-0.6259,-0.6267,-0.6267,-0.6267,-0.626,-0.626,-0.6259,-0.6259,-0.6269,-0.627,-0.627,0,0,0,0,0,0,0,0,0,0,0,0,0,-0.6249,-0.6241,-0.6259,-0.6257,-0.6256,-0.6267,-0.6267,-0.6267,-0.626,-0.626,-0.6259,-0.6259,-0.6269,-0.627,-0.6271,-0.6284,0,0,-0.6273,-0.6273,0,0,0,0,0,0,0,0,-0.6248,-0.6249,-0.6257,-0.6257,-0.6257,-0.6262,-0.6264,-0.6273,-0.626,-0.6259,-0.6259,-0.6259,-0.6267,-0.6268,-0.6271,-0.6285,-0.6285,-0.6273,-0.6274,-0.6274,-0.6274,0,0,0,0,0,0,0,-0.6248,-0.6249,-0.6262,-0.6257,-0.6257,-0.6256,-0.6257,-0.6266,-0.6266,-0.6259,-0.6258,-0.6259,-0.6267,-0.627,-0.6271,-0.6285,-0.6273,-0.6274,-0.6274,-0.6275,-0.6311,-0.6312,0,0,0,0,0,0,-0.6247,-0.6248,-0.6262,-0.6262,-0.6251,-0.6257,-0.6257,-0.6261,-0.6265,-0.6266,-0.626,-0.6259,-0.6269,-0.627,-0.6271,-0.6287,-0.6274,-0.6275,-0.6275,-0.6311,-0.6311,-0.6312,0,0,0,0,0,0,-0.6247,-0.6248,-0.6262,-0.6255,-0.6257,-0.6257,-0.6261,-0.6261,-0.6264,-0.6266,-0.6266,-0.6262,-0.6269,-0.627,-0.6281,-0.6288,-0.6275,-0.6276,-0.631,-0.6311,-0.6312,-0.632,0,0,0,0,0,0,-0.6246,-0.6248,-0.6253,-0.6255,-0.6257,-0.627,-0.6262,-0.6262,-0.6265,-0.6264,-0.6268,-0.6269,-0.6268,-0.628,-0.6282,-0.6289,-0.6276,-0.631,-0.6311,-0.6311,-0.6319,-0.6321,-0.6322,0,0,0,0,0,-0.6245,-0.6255,-0.6253,-0.6255,-0.6263,-0.6271,-0.6272,-0.627,-0.6265,-0.627,-0.6272,-0.6269,-0.6287,-0.6281,-0.6283,-0.629,-0.6309,-0.631,-0.6311,-0.6318,-0.632,-0.6322,0,0,0,0,0,0,-0.6254,-0.6256,-0.6253,-0.6264,-0.6267,-0.627,-0.6276,-0.6273,-0.6278,-0.6277,-0.6276,-0.6277,-0.6288,-0.6291,-0.6284,-0.6304,-0.6297,-0.6299,-0.6302,-0.6304,-0.6306,-0.6304,-0.6277,0,0,0,0,0,-0.6257,-0.6263,-0.6264,-0.6273,-0.6275,-0.6275,-0.6279,-0.6277,-0.6281,-0.6282,-0.6285,-0.6289,-0.6296,-0.63,-0.6306,-0.632,-0.6321,-0.6326,-0.6327,-0.6329,-0.633,-0.6337,-0.6339,-0.6315,-0.6315,-0.6315,0,0,-0.6264,-0.6265,-0.6269,-0.6275,-0.6278,-0.6284,-0.6276,-0.6283,-0.6288,-0.6284,-0.6294,-0.6296,-0.6301,-0.6312,-0.6318,-0.6315,-0.6337,-0.633,-0.6331,-0.6332,-0.6338,-0.6341,-0.6343,-0.6316,-0.6316,-0.6316,0,0,-0.6278,-0.628,-0.6288,-0.6291,-0.6294,-0.6294,-0.6296,-0.6299,-0.63,-0.631,-0.6306,-0.6313,-0.6324,-0.6328,-0.6331,-0.6348,-0.6345,-0.635,-0.6358,-0.6365,-0.6367,-0.6369,-0.6374,-0.6377,-0.6351,-0.6351,-0.6351,0,-0.6286,-0.6295,-0.6293,-0.63,-0.6303,-0.6299,-0.6307,-0.631,-0.6315,-0.6318,-0.6314,-0.6328,-0.6332,-0.6344,-0.6348,-0.6351,-0.6354,-0.6349,-0.6367,-0.6369,-0.637,-0.6376,-0.6378,-0.6352,-0.6352,-0.6352,-0.6352,0,-0.6304,-0.631,-0.6316,-0.6321,-0.6325,-0.6333,-0.6332,-0.6337,-0.6335,-0.6336,-0.6346,-0.635,-0.6357,-0.636,-0.6359,-0.6373,-0.637,-0.6367,-0.636,-0.6373,-0.6378,-0.638,-0.6353,-0.6352,-0.6352,-0.6352,0,0,-0.6324,-0.6327,-0.6329,-0.6331,-0.6335,-0.634,-0.6348,-0.6354,-0.6358,-0.6362,-0.6369,-0.6379,-0.6376,-0.638,-0.6379,-0.6385,-0.6398,-0.6381,-0.6381,-0.6384,-0.6413,-0.6415,-0.6418,-0.6397,-0.6397,-0.6397,-0.6413,0,-0.6338,-0.6351,-0.6349,-0.6362,-0.6367,-0.6364,-0.6371,-0.6374,-0.6375,-0.6381,-0.6383,-0.6389,-0.6385,-0.6387,-0.6393,-0.6395,-0.6404,-0.6394,-0.6403,-0.6403,-0.6401,-0.642,-0.6422,-0.6436,-0.6415,-0.6415,-0.6415,0,-0.6356,-0.636,-0.6373,-0.6376,-0.6378,-0.6384,-0.639,-0.6395,-0.6399,-0.64,-0.6404,-0.6403,-0.6412,-0.6405,-0.6417,-0.6411,-0.6415,-0.6416,-0.6417,-0.6417,-0.6409,-0.642,-0.6441,-0.6443,-0.6418,-0.6418,-0.6418,0,-0.6369,-0.6378,-0.6386,-0.6388,-0.6392,-0.6396,-0.6398,-0.6402,-0.6406,-0.6411,-0.6413,-0.642,-0.6423,-0.6429,-0.643,-0.6425,-0.6442,-0.6436,-0.6443,-0.6443,-0.6446,-0.6445,-0.6466,-0.6449,-0.6449,-0.6449,-0.6449,0,-0.6384,-0.6392,-0.6392,-0.6397,-0.6406,-0.6405,-0.6414,-0.6415,-0.6419,-0.6425,-0.6423,-0.6429,-0.643,-0.6436,-0.6437,-0.6447,-0.6449,-0.6449,-0.6449,-0.6449,-0.6449,-0.6451,-0.645,-0.645,-0.645,-0.645,-0.645,0,-0.6399,-0.6399,-0.6408,-0.6411,-0.6412,-0.6418,-0.6421,-0.6426,-0.6427,-0.6435,-0.6437,-0.6439,-0.6446,-0.6448,-0.6457,-0.6457,-0.6469,-0.6468,-0.6467,-0.6467,-0.6474,-0.6473,-0.6496,-0.6499,-0.6481,-0.6481,-0.6481,0,-0.6409,-0.6415,-0.6418,-0.6421,-0.6423,-0.6429,-0.6433,-0.6432,-0.6436,-0.6442,-0.6446,-0.6453,-0.6459,-0.6471,-0.6474,-0.6481,-0.648,-0.6488,-0.6481,-0.6481,-0.648,-0.6479,-0.6479,-0.6489,-0.6489,-0.6489,-0.6489,0,-0.6426,-0.6426,-0.643,-0.6435,-0.6439,-0.6443,-0.6447,-0.6451,-0.6451,-0.6456,-0.6463,-0.6467,-0.6476,-0.6483,-0.649,-0.6493,-0.6491,-0.6492,-0.6494,-0.6493,-0.6492,-0.6492,-0.647,-0.6491,-0.6491,-0.6491,-0.6491,-0.6491,-0.6438,-0.6443,-0.6446,-0.6451,-0.6454,-0.6458,-0.6463,-0.6464,-0.647,-0.6476,-0.6476,-0.6484,-0.6489,-0.6498,-0.6501,-0.6508,-0.6505,-0.6508,-0.6509,-0.651,-0.651,-0.6491,-0.6509,-0.6509,-0.6509,-0.6509,-0.6509,0,-0.6454,-0.6456,-0.6461,-0.6466,-0.6471,-0.6468,-0.6473,-0.6477,-0.6483,-0.6487,-0.6493,-0.6501,-0.6508,-0.6511,-0.6518,-0.6523,-0.6523,-0.6525,-0.6524,-0.6525,-0.6512,-0.6509,-0.6525,-0.6525,-0.6525,-0.6525,-0.6525,-0.6525,-0.6463,-0.6471,-0.6471,-0.6481,-0.6483,-0.6489,-0.6492,-0.6496,-0.6499,-0.6508,-0.6513,-0.6515,-0.652,-0.6527,-0.6533,-0.6534,-0.6537,-0.654,-0.654,-0.6528,-0.6526,-0.6524,-0.6522,-0.654,-0.654,-0.6553,-0.6553,-0.6553]},{"header":{"parameterUnit":"m.s-1","parameterCategory":1,"la1":30.2991,"la2":30.254,"lo1":-89.0895,"lo2":-89.0444,"dy":0.0017,"dx":0.0017,"nx":28,"ny":28,"refTime":"2024-02-01T03:00:00:Z","depth":0,"parameterNumber":3,"parameterNumberName":"V-component_of_WINDS"},"data":[0,0,0,0,0,0,0,0,0,0,0,0,0,0,0,0,0,0,0,0,0,0,0,0,0,0,0,0,0,0,0,0,0,0,0,0,0,0,0,0,0,0,0,0,0,0,0,0,0,0,0,0,0,0,0,0,0,0,0.4726,0.4727,0,0.4769,0.4769,0.477,0.4789,0.4789,0.4789,0.4789,0.4834,0.4835,0.4837,0,0,0,0,0,0,0,0,0,0,0,0,0,0.4663,0.4664,0.4726,0.4727,0.4727,0.4769,0.4769,0.477,0.4789,0.4789,0.4789,0.4789,0.4834,0.4835,0.4837,0,0,0,0,0,0,0,0,0,0,0,0,0,0.4697,0.4665,0.4726,0.4742,0.4744,0.4768,0.4769,0.477,0.4789,0.4789,0.4789,0.4789,0.4833,0.4835,0.4837,0.485,0,0,0.4843,0.4843,0,0,0,0,0,0,0,0,0.4695,0.4699,0.4739,0.4741,0.4743,0.4774,0.4764,0.4797,0.4789,0.4772,0.4789,0.4789,0.4814,0.4818,0.4826,0.4852,0.4854,0.4843,0.4844,0.4845,0.4845,0,0,0,0,0,0,0,0.4692,0.4697,0.4743,0.474,0.4742,0.4747,0.4752,0.477,0.4793,0.4774,0.4775,0.478,0.4815,0.4824,0.4827,0.4854,0.4843,0.4844,0.4845,0.4846,0.4892,0.4893,0,0,0,0,0,0,0.4687,0.4695,0.4742,0.4744,0.4718,0.4749,0.4754,0.4764,0.4793,0.4797,0.478,0.478,0.4821,0.4825,0.4829,0.4845,0.4845,0.4846,0.4847,0.4892,0.4893,0.4893,0,0,0,0,0,0,0.4686,0.4691,0.474,0.472,0.4727,0.475,0.4761,0.4765,0.4773,0.4797,0.4802,0.4784,0.4821,0.4826,0.4844,0.4847,0.4847,0.4849,0.4892,0.4892,0.4893,0.4879,0,0,0,0,0,0,0.4684,0.4691,0.4695,0.472,0.4728,0.4754,0.4761,0.4766,0.4776,0.4778,0.4803,0.4807,0.4821,0.4841,0.4846,0.485,0.485,0.4892,0.4892,0.4893,0.4879,0.4878,0.4878,0,0,0,0,0,0.4682,0.469,0.4696,0.4701,0.4734,0.4754,0.4759,0.4775,0.4776,0.4782,0.4797,0.4806,0.4846,0.4843,0.4848,0.4853,0.4892,0.4892,0.4893,0.4879,0.4878,0.4878,0,0,0,0,0,0,0.4666,0.4694,0.47,0.4717,0.4733,0.4758,0.4765,0.4773,0.479,0.4791,0.481,0.4815,0.4832,0.4844,0.484,0.4866,0.487,0.4871,0.4858,0.4857,0.4857,0.4853,0.4852,0,0,0,0,0,0.4664,0.4678,0.4702,0.4714,0.4722,0.4742,0.4751,0.4762,0.478,0.4787,0.4804,0.4821,0.4838,0.4848,0.4864,0.4881,0.4886,0.4886,0.4886,0.4885,0.4886,0.4896,0.4896,0.4894,0.4894,0.4894,0,0,0.4661,0.4678,0.4686,0.4711,0.4725,0.4739,0.4748,0.4762,0.4773,0.4789,0.4807,0.482,0.4841,0.4858,0.4866,0.4869,0.4888,0.4885,0.4885,0.4886,0.4896,0.4896,0.4896,0.4894,0.4894,0.4894,0,0,0.4663,0.4677,0.4689,0.4702,0.4723,0.4736,0.4739,0.4762,0.4771,0.4789,0.4802,0.4815,0.4843,0.4857,0.4868,0.4874,0.4883,0.4879,0.4876,0.4885,0.4885,0.4886,0.4888,0.4889,0.488,0.488,0.488,0,0.4657,0.4678,0.4694,0.4708,0.4719,0.4733,0.4746,0.4758,0.4783,0.4791,0.4793,0.4828,0.4843,0.4863,0.4865,0.4873,0.4877,0.4877,0.4884,0.4884,0.4885,0.4887,0.4888,0.4879,0.4879,0.488,0.488,0,0.467,0.4684,0.4691,0.4715,0.4726,0.4739,0.4757,0.4767,0.4777,0.479,0.4808,0.4826,0.4847,0.4852,0.4862,0.4874,0.4875,0.488,0.4884,0.4884,0.4887,0.4888,0.4878,0.4879,0.4879,0.4879,0,0,0.4664,0.4694,0.4697,0.4707,0.4731,0.4743,0.4756,0.4776,0.4784,0.4801,0.4813,0.4836,0.4841,0.4853,0.4864,0.4872,0.4876,0.4876,0.4877,0.4876,0.489,0.4886,0.4887,0.4882,0.4882,0.4882,0.4889,0,0.4669,0.4693,0.4707,0.4726,0.474,0.4754,0.4766,0.4782,0.4794,0.4808,0.4821,0.4837,0.4843,0.485,0.4858,0.4873,0.4879,0.4873,0.4893,0.4894,0.4888,0.4889,0.4884,0.489,0.489,0.489,0.489,0,0.4678,0.4694,0.4714,0.4735,0.4741,0.4752,0.477,0.4783,0.4802,0.481,0.4823,0.4834,0.485,0.4852,0.4873,0.4869,0.4878,0.4887,0.4887,0.489,0.4892,0.4891,0.4892,0.4893,0.4892,0.4892,0.4892,0,0.4671,0.4698,0.4713,0.4721,0.4747,0.4754,0.4765,0.4783,0.4794,0.481,0.4817,0.4835,0.4845,0.4859,0.4875,0.4875,0.4895,0.4898,0.4902,0.4902,0.4906,0.4906,0.4908,0.4912,0.4912,0.4912,0.4911,0,0.4676,0.4688,0.471,0.4719,0.4733,0.4749,0.4762,0.4775,0.4791,0.4803,0.4816,0.4828,0.4848,0.4862,0.4874,0.489,0.4894,0.4902,0.4905,0.4901,0.49,0.4907,0.4907,0.4912,0.4912,0.4912,0.4912,0,0.4671,0.4686,0.4704,0.4726,0.4732,0.4741,0.4761,0.4771,0.4783,0.4799,0.4803,0.4824,0.4841,0.4857,0.4881,0.4889,0.4904,0.4909,0.4898,0.49,0.4903,0.4903,0.4911,0.4913,0.4914,0.4914,0.4914,0,0.4673,0.4682,0.4705,0.4714,0.4725,0.4739,0.4749,0.4766,0.4776,0.4798,0.4805,0.4823,0.4838,0.4864,0.4881,0.4899,0.4904,0.4905,0.4907,0.4902,0.4904,0.4903,0.4904,0.4905,0.4905,0.4905,0.4905,0,0.4675,0.4682,0.4696,0.4713,0.4725,0.4739,0.4754,0.4761,0.478,0.4791,0.4809,0.482,0.4843,0.4861,0.4881,0.4892,0.4902,0.4904,0.4906,0.4902,0.4895,0.4899,0.4897,0.4904,0.4904,0.4904,0.4904,0.4904,0.4673,0.4682,0.4699,0.4715,0.4728,0.4741,0.4751,0.4765,0.4779,0.4799,0.4808,0.4825,0.4843,0.487,0.4882,0.4896,0.4899,0.4901,0.4902,0.4903,0.4902,0.4893,0.49,0.49,0.49,0.49,0.49,0,0.4676,0.4687,0.4702,0.4722,0.4734,0.4741,0.4758,0.4767,0.4782,0.4798,0.4812,0.4832,0.4849,0.4867,0.4885,0.4893,0.4898,0.4897,0.4897,0.4899,0.4898,0.4895,0.4893,0.4893,0.4893,0.4893,0.4893,0.4893,0.4679,0.4694,0.4703,0.4724,0.4736,0.4752,0.4761,0.4774,0.4787,0.4808,0.4822,0.4833,0.485,0.4869,0.4885,0.489,0.4896,0.4894,0.49,0.4899,0.4899,0.49,0.4897,0.4895,0.4895,0.49,0.49,0.49]}]]